Location: Newark
(43.2858°N, 16.6768°E)
Time: 10:17:43
(UTC+00:00)

ISS - Visible Passes

Search period start: 19 September 2019 00:00
Search period end: 29 September 2019 00:00
Orbit: 411 x 421 km, 51.6° (Epoch: 19 September)

Date Brightness Start Highest point End Pass type
(mag) Time Alt. Az. Time Alt. Az. Time Alt. Az.
19 Sep -3.6 18:36:27 10° SW 18:39:18 54° S 18:39:18 54° S visible
20 Sep -3.1 17:48:18 10° SSW 17:51:21 34° SE 17:53:26 17° E visible
20 Sep -1.3 19:24:56 10° W 19:26:22 21° W 19:26:22 21° W visible
21 Sep -3.2 18:36:16 10° WSW 18:39:32 55° NNW 18:40:17 42° NNE visible
22 Sep -3.8 17:47:43 10° WSW 17:51:02 87° NNW 17:54:02 12° ENE visible
22 Sep -1.1 19:25:21 10° WNW 19:26:56 19° NW 19:26:56 19° NW visible
23 Sep -2.1 18:36:31 10° W 18:39:29 29° NNW 18:40:32 24° NNE visible
24 Sep -2.6 17:47:42 10° W 17:50:52 39° NNW 17:54:02 10° NE visible
24 Sep -0.8 19:25:44 10° NW 19:26:56 16° NW 19:26:56 16° NW visible
25 Sep -1.7 18:36:54 10° WNW 18:39:31 21° N 18:40:20 19° NNE visible
26 Sep -1.8 17:48:01 10° WNW 17:50:49 24° NNW 17:53:38 10° NE visible
26 Sep -0.6 19:25:49 10° NW 19:26:34 14° NNW 19:26:34 14° NNW visible
27 Sep -1.6 18:37:08 10° NW 18:39:36 19° N 18:39:52 19° N visible
28 Sep -1.6 17:48:20 10° NW 17:50:50 19° N 17:53:09 11° NE visible
28 Sep -0.5 19:25:32 10° NW 19:26:02 13° NW 19:26:02 13° NW visible
